Location: Unspecified
(47.9110°N, 14.3980°E)
Time: 08:24:43
(UTC+00:00)

USA 238 DEB - Pass Details

Date: 06 August 2020
Orbit: 1006 x 1206 km, 63.4° (Epoch: 19 September)

Event Time Altitude Azimuth Distance (km) Brightness Sun altitude
Exits shadow 22:01:53 10° 231° (SW) 2,813 5.7 -24.0°
Reaches altitude 10° 22:01:53 10° 231° (SW) 2,810 5.7 -24.0°
Maximum altitude 22:08:29 70° 314° (NW) 1,119 3.9 -24.3°
Drops below altitude 10° 22:15:26 10° 39° (NE) 2,946 6.5 -24.6°
Sets 22:18:11 0° 42° (NE) 3,936 7.1 -24.8°
